Weather History for Rugby, ND

Change the Weather History Date:

Saturday, December 1, 2012

  Actual Average Record
Temperature  
Mean Temperature 24 °F -  
Max Temperature 32 °F 26 °F 52 °F (1969)
Min Temperature 17 °F 6 °F -18 °F (1978)
Degree Days  
Heating Degree Days 40    
Moisture  
Dew Point 26 °F    
Average Humidity 99    
Maximum Humidity 100    
Minimum Humidity 93    
Precipitation  
Precipitation 0.00 in - - ()
Sea Level Pressure  
Sea Level Pressure 29.73 in    
Wind  
Wind Speed 7 mph (WNW)    
Max Wind Speed 14 mph    
Max Gust Speed 20 mph    
Visibility 3 miles    
Events Fog    
Averages and records for this station are not official NWS values.
T = Trace of Precipitation, MM = Missing Value Source: NWS Daily Summary

Daily Weather History Graph

Daily Weather History Graph

Search for Another Location

Airport:

Trip Planner

Search our weather history database for the weather conditions in past years. The results will help you decide how hot, cold, wet, or windy it might be!

Date:

Astronomy

Dec. 01, 2012 Rise Set
Actual Time 8:11 AM CST 4:47 PM CST
Civil Twilight 7:35 AM CST 5:23 PM CST
Nautical Twilight 6:55 AM CST 6:02 PM CST
Astronomical Twilight 6:18 AM CST 6:40 PM CST
Moon 7:43 PM CST (12/1) 10:21 AM CST (12/1)
Length of Visible Light 9h 48m
Length of Day
8h 36m
Waning Gibbous, 91% of the Moon is Illuminated
Dec 1
Waning Gibbous
Dec 6
Last Quarter
Dec 13
New
Dec 19
First Quarter
Dec 28
Full

Hourly Weather History & Observations

Time (CST) Temp. Windchill Dew Point Humidity Pressure Visibility Wind Dir Wind Speed Gust Speed Precip Events Conditions
12:15 AM 26.6 °F 16.8 °F 26.6 °F 100% 29.66 in 5.0 mi SE 10.4 mph 17.3 mph N/A   Partly Cloudy
12:35 AM 26.6 °F 16.8 °F 26.6 °F 100% 29.66 in 5.0 mi SSE 10.4 mph - N/A   Partly Cloudy
12:55 AM 28.4 °F 19.1 °F 26.6 °F 93% 29.65 in 5.0 mi SSE 10.4 mph 17.3 mph N/A   Clear
1:15 AM 28.4 °F 21.2 °F 26.6 °F 93% 29.66 in 5.0 mi South 6.9 mph - N/A   Clear
1:35 AM 26.6 °F 21.2 °F 26.6 °F 100% 29.65 in 5.0 mi SSE 4.6 mph - N/A   Clear
2:15 AM 26.6 °F 19.1 °F 26.6 °F 100% 29.63 in 5.0 mi SSE 6.9 mph - N/A   Clear
2:55 AM 26.6 °F 19.1 °F 26.6 °F 100% 29.61 in 5.0 mi SSE 6.9 mph - N/A   Scattered Clouds
3:35 AM 26.6 °F 21.2 °F 24.8 °F 93% 29.61 in 4.0 mi South 4.6 mph - N/A   Clear
3:55 AM 24.8 °F 19.1 °F 24.8 °F 100% 29.62 in 4.0 mi South 4.6 mph - N/A   Clear
4:15 AM 24.8 °F - 23.0 °F 93% 29.62 in 3.0 mi Calm Calm - N/A   Partly Cloudy
4:35 AM 24.8 °F - 24.8 °F 100% 29.61 in 3.0 mi Calm Calm - N/A   Mostly Cloudy
4:55 AM 24.8 °F 20.5 °F 24.8 °F 100% 29.62 in 3.0 mi West 3.5 mph - N/A   Mostly Cloudy
5:15 AM 23.0 °F 15.8 °F 23.0 °F 100% 29.64 in 3.0 mi WSW 5.8 mph - N/A   Mostly Cloudy
5:35 AM 23.0 °F 15.8 °F 23.0 °F 100% 29.64 in 2.5 mi WSW 5.8 mph - N/A   Mostly Cloudy
5:55 AM 23.0 °F 15.8 °F 23.0 °F 100% 29.64 in 3.0 mi West 5.8 mph - N/A   Scattered Clouds
6:15 AM 21.2 °F 13.6 °F 21.2 °F 100% 29.64 in 3.0 mi NW 5.8 mph - N/A   Clear
6:35 AM 21.2 °F 13.6 °F 21.2 °F 100% 29.65 in 3.0 mi NW 5.8 mph - N/A   Clear
6:55 AM 21.2 °F 12.6 °F 21.2 °F 100% 29.66 in 2.0 mi NW 6.9 mph - N/A   Clear
7:15 AM 21.2 °F 13.6 °F 19.4 °F 93% 29.66 in 2.0 mi NNW 5.8 mph - N/A   Clear
7:35 AM 19.4 °F 14.3 °F 19.4 °F 100% 29.68 in 2.0 mi NW 3.5 mph - N/A   Clear
7:55 AM 19.4 °F 14.3 °F 19.4 °F 100% 29.68 in 1.2 mi NW 3.5 mph - N/A   Mostly Cloudy
8:15 AM 17.6 °F 12.3 °F 17.6 °F 100% 29.69 in 0.2 mi WNW 3.5 mph - N/A Fog Light Freezing Fog
8:35 AM 17.6 °F 12.3 °F 15.8 °F 93% 29.70 in 0.2 mi West 3.5 mph - N/A Fog Light Freezing Fog
9:15 AM 21.2 °F 16.4 °F 21.2 °F 100% 29.70 in 0.5 mi West 3.5 mph - N/A Fog Light Freezing Fog
9:35 AM 23.0 °F 15.8 °F 23.0 °F 100% 29.71 in 1.5 mi West 5.8 mph - N/A   Overcast
9:55 AM 24.8 °F 17.9 °F 24.8 °F 100% 29.72 in 2.0 mi West 5.8 mph - N/A   Overcast
10:15 AM 28.4 °F 18.5 °F 28.4 °F 100% 29.72 in 2.5 mi WNW 11.5 mph - N/A   Overcast
10:35 AM 28.4 °F 18.5 °F 28.4 °F 100% 29.73 in 2.5 mi NW 11.5 mph 19.6 mph N/A   Overcast
10:55 AM 30.2 °F 20.8 °F 30.2 °F 100% 29.73 in 3.0 mi NW 11.5 mph - N/A   Overcast
11:15 AM 32.0 °F 23.6 °F 32.0 °F 100% 29.73 in 3.0 mi NW 10.4 mph - N/A   Overcast
11:35 AM 32.0 °F 24.2 °F 32.0 °F 100% 29.74 in 3.0 mi WNW 9.2 mph - N/A   Overcast
11:55 AM 32.0 °F 23.0 °F 32.0 °F 100% 29.74 in 3.0 mi WNW 11.5 mph - N/A   Mist
12:15 PM 32.0 °F 22.1 °F 32.0 °F 100% 29.74 in 5.0 mi NW 13.8 mph - N/A   Overcast
12:35 PM 32.0 °F 22.5 °F 32.0 °F 100% 29.74 in 3.0 mi NW 12.7 mph - N/A   Overcast
12:55 PM 32.0 °F 23.6 °F 32.0 °F 100% 29.74 in 2.0 mi NW 10.4 mph - N/A   Overcast
1:15 PM 30.2 °F 20.2 °F 30.2 °F 100% 29.76 in 2.5 mi NW 12.7 mph - N/A   Overcast
1:35 PM 30.2 °F 21.3 °F 28.4 °F 93% 29.76 in 5.0 mi WNW 10.4 mph - N/A   Overcast
2:15 PM 28.4 °F 19.1 °F 28.4 °F 100% 29.77 in 10.0 mi NW 10.4 mph - N/A   Overcast
2:35 PM 28.4 °F 18.5 °F 28.4 °F 100% 29.77 in 5.0 mi NW 11.5 mph - N/A   Overcast
3:15 PM 28.4 °F 18.5 °F 26.6 °F 93% 29.77 in 5.0 mi NNW 11.5 mph - N/A   Overcast
3:35 PM 26.6 °F 16.2 °F 26.6 °F 100% 29.78 in 3.0 mi NW 11.5 mph - N/A   Overcast
3:55 PM 26.6 °F 18.2 °F 26.6 °F 100% 29.79 in 2.0 mi North 8.1 mph - N/A   Overcast
4:15 PM 26.6 °F 20.0 °F 26.6 °F 100% 29.80 in 0.5 mi NW 5.8 mph - N/A Fog Light Freezing Fog
4:35 PM 26.6 °F 18.2 °F 26.6 °F 100% 29.81 in 0.5 mi NW 8.1 mph - N/A Fog Light Freezing Fog
4:55 PM 24.8 °F 19.1 °F 24.8 °F 100% 29.80 in 0.2 mi NNW 4.6 mph - N/A Fog Light Freezing Fog
5:15 PM 24.8 °F 20.5 °F 24.8 °F 100% 29.79 in 0.2 mi NNW 3.5 mph - N/A Fog Light Freezing Fog
5:55 PM 24.8 °F 20.5 °F 24.8 °F 100% 29.78 in 0.5 mi NE 3.5 mph - N/A Fog Light Freezing Fog
6:15 PM 24.8 °F 20.5 °F 24.8 °F 100% 29.79 in 1.0 mi East 3.5 mph - N/A   Overcast
6:35 PM 24.8 °F - 24.8 °F 100% 29.82 in 3.0 mi Calm Calm - N/A   Overcast
6:55 PM 24.8 °F 19.1 °F 24.8 °F 100% 29.82 in 2.5 mi WNW 4.6 mph - N/A   Overcast
7:15 PM 24.8 °F - 24.8 °F 100% 29.82 in 5.0 mi Calm Calm - N/A   Overcast
7:35 PM 24.8 °F - 24.8 °F 100% 29.82 in 5.0 mi Calm Calm - N/A   Overcast
7:55 PM 24.8 °F - 24.8 °F 100% 29.82 in 5.0 mi Calm Calm - N/A   Overcast
8:15 PM 24.8 °F - 24.8 °F 100% 29.81 in 4.0 mi Calm Calm - N/A   Overcast
8:35 PM 24.8 °F - 24.8 °F 100% 29.82 in 4.0 mi Calm Calm - N/A   Overcast
8:55 PM 24.8 °F - 24.8 °F 100% 29.82 in 4.0 mi Calm Calm - N/A   Overcast
9:15 PM 24.8 °F 19.1 °F 24.8 °F 100% 29.81 in 4.0 mi SSE 4.6 mph - N/A   Overcast
9:35 PM 24.8 °F - 24.8 °F 100% 29.81 in 5.0 mi Calm Calm - N/A   Overcast
9:55 PM 26.6 °F 22.6 °F 26.6 °F 100% 29.81 in 5.0 mi SSE 3.5 mph - N/A   Overcast
10:15 PM 26.6 °F 21.2 °F 26.6 °F 100% 29.82 in 4.0 mi SSE 4.6 mph - N/A   Overcast
10:35 PM 26.6 °F 22.6 °F 26.6 °F 100% 29.81 in 0.8 mi SE 3.5 mph - N/A   Overcast
10:55 PM 26.6 °F 21.2 °F 26.6 °F 100% 29.81 in 0.5 mi SE 4.6 mph - N/A Fog Light Freezing Fog
11:15 PM 26.6 °F 19.1 °F 26.6 °F 100% 29.80 in 1.0 mi SE 6.9 mph - N/A   Overcast
11:35 PM 26.6 °F 19.1 °F 26.6 °F 100% 29.80 in 1.2 mi ESE 6.9 mph - N/A   Overcast
11:55 PM 26.6 °F 20.0 °F 26.6 °F 100% 29.80 in 1.5 mi SE 5.8 mph - N/A   Overcast